Read MPEC 2005-V97
Read MPEC 2005-W01
M.P.E.C. 2005-V98 Issued 2005 Nov. 15, 11:53 UT
The Minor Planet Electronic Circulars contain information on unusual
minor planets and routine data on comets. They are published
on behalf of Commission 20 of the International Astronomical Union by the
Minor Planet Center, Smithsonian Astrophysical Observatory,
Cambridge, MA 02138, U.S.A.
Supported in part by the Brinson Foundation
Supported in part by the TABASGO Foundation
Prepared using the Tamkin Foundation Computer Network
MPC@CFA.HARVARD.EDU
URL http://cfa-www.harvard.edu/iau/mpc.html ISSN 1523-6714
2005 VR7
Observations:
K05V07R*2C2005 11 07.61209910 22 57.841+06 57 46.89 21.7 R EV098568
K05V07R 2C2005 11 07.62115810 22 58.202+06 57 16.95 21.7 R EV098568
K05V07R 2C2005 11 07.63022010 22 58.523+06 56 47.24 EV098568
K05V07R 2C2005 11 11.55873410 25 49.105+03 21 50.60 22.5 R EV098568
K05V07R 2C2005 11 11.56122610 25 49.205+03 21 42.41 22.3 R EV098568
K05V07R 2C2005 11 11.58185910 25 50.033+03 20 34.99 22.4 R EV098568
K05V07R 2C2005 11 11.58435210 25 50.141+03 20 26.90 22.4 R EV098568
K05V07R 2C2005 11 13.58648710 27 17.465+01 31 33.03 22.1 R EV098568
K05V07R 2C2005 11 13.58901910 27 17.558+01 31 24.71 22.2 R EV098568
Observer details:
568 Mauna Kea. Observers F. Bernardi, A. Boattini. Measurers F. Bernardi,
D. J. Tholen, A. Boattini. 2.24-m University of Hawaii reflector + 2048
CCD, 3.6-m Canada-France-Hawaii Telescope + MegaCam.
Orbital elements:
2005 VR7
Epoch 2005 Aug. 18.0 TT = JDT 2453600.5 MPC
M 340.22070 (2000.0) P Q
n 0.87533788 Peri. 100.96184 +0.90685051 +0.08918402
a 1.0823114 Node 254.92999 -0.20993836 +0.94305665
e 0.2870463 Incl. 25.25063 +0.36544224 +0.32045336
P 1.13 H 21.3 G 0.15 U 5
Residuals in seconds of arc
051107 568 0.0 0.1+ 051111 568 0.0 0.0 051111 568 0.1+ 0.0
051107 568 0.2+ 0.1- 051111 568 0.0 0.0 051113 568 0.1+ 0.0
051107 568 0.2- 0.0 051111 568 0.0 0.0 051113 568 0.1- 0.0
Ephemeris:
2005 VR7 a,e,i = 1.08, 0.29, 25 q = 0.7716
Date TT R. A. (2000) Decl. Delta r Elong. Phase V
2005 11 16 10 29.02 -00 39.0 0.567 1.001 74.7 72.3 22.6
2005 11 26 10 35.77 -09 31.8 0.571 1.050 79.9 67.7 22.6
2005 12 06 10 40.77 -18 07.5 0.574 1.098 85.2 63.4 22.5
2005 12 16 10 42.79 -26 19.5 0.576 1.144 90.4 59.4 22.5
2005 12 26 10 40.43 -33 59.6 0.577 1.186 95.4 55.6 22.5
2006 01 05 10 31.91 -40 53.2 0.579 1.225 100.0 52.2 22.5
2006 01 15 10 15.58 -46 39.5 0.583 1.260 104.2 49.2 22.5
2006 01 25 09 50.75 -50 53.1 0.589 1.292 107.7 46.5 22.5
2006 02 04 09 19.33 -53 07.7 0.597 1.319 110.5 44.4 22.5
2006 02 14 08 46.93 -53 12.2 0.609 1.342 112.3 42.9 22.5
2006 02 24 08 19.97 -51 20.4 0.624 1.361 113.1 42.0 22.6
2006 03 06 08 02.28 -48 02.9 0.643 1.376 112.8 41.7 22.7
2006 03 16 07 54.33 -43 56.0 0.665 1.386 111.6 41.8 22.8
2006 03 26 07 54.64 -39 28.0 0.691 1.391 109.6 42.5 22.9
2006 04 05 08 01.54 -34 58.6 0.720 1.393 107.0 43.4 23.0
2006 04 15 08 13.52 -30 41.9 0.752 1.390 103.8 44.5 23.1
2006 04 25 08 29.36 -26 45.1 0.786 1.383 100.3 45.7 23.2
2006 05 05 08 48.24 -23 12.7 0.821 1.371 96.5 47.0 23.3
Timothy B. Spahr (C) Copyright 2005 MPC M.P.E.C. 2005-V98
Read MPEC 2005-V97
Read MPEC 2005-W01
Our Web policy. Index to the CBAT/MPC/ICQ pages.